KB0BDN-13 Weather Reports


Display with metric or nautical units.
time (UTC)temp
F
wind
direction
speed
MPH
gust
MPH
rain 1hr
in
rain 24hr
in
rain mn
in
humidity
%
barometer
mb
20260503173208 55 275 4.0 9.0 0.00 0.00 0.00 37 996.4
20260503171707 54 5 9.0 10.0 0.00 0.00 0.00 36 996.5
20260503170207 54 300 4.0 8.0 0.00 0.00 0.00 39 996.5
20260503160207 53 334 8.0 9.0 0.00 0.00 0.00 40 996.9
20260503150207 52 347 3.0 8.0 0.00 0.00 0.00 57 996.5
20260503140207 50 310 2.0 5.0 0.00 0.00 0.00 74 997.1
20260503130207 47 184 1.0 5.0 0.00 0.00 0.00 82 997.2
20260503120207 40 182 0.0 2.0 0.00 0.00 0.00 96 997.4
20260503110207 30 182 0.0 0.0 0.00 0.00 0.00 92 997.8
20260503100206 30 182 0.0 0.0 0.00 0.00 0.00 88 998.3
20260503090206 33 182 0.0 0.0 0.00 0.00 0.00 88 998.8
20260503080206 34 182 0.0 0.0 0.00 0.00 0.00 74 999.3
20260503071706 38 182 0.0 0.0 0.00 0.00 0.00 66 999.6
20260503070206 39 182 0.0 0.0 0.00 0.00 0.00 64 999.8
20260503060206 41 182 0.0 0.0 0.00 0.00 0.00 58 1000.7
20260503054706 41 182 0.0 0.0 0.00 0.00 0.00 54 1000.7
20260503053206 42 182 0.0 0.0 0.00 0.00 0.00 53 1000.8
20260503051706 42 182 0.0 0.0 0.00 0.00 0.00 50 1001.1
20260503050206 42 182 0.0 0.0 0.00 0.00 0.00 50 1001.2
20260503044706 43 182 0.0 1.0 0.00 0.00 0.00 50 1001.2
20260503043206 43 182 0.0 0.0 0.00 0.00 0.00 50 1001.3
20260503041706 42 182 0.0 3.0 0.00 0.00 0.00 52 1001.4
20260503040206 42 182 0.0 3.0 0.00 0.00 0.00 52 1001.5
20260503034706 43 182 0.0 1.0 0.00 0.00 0.00 50 1001.9
20260503033206 43 182 0.0 0.0 0.00 0.00 0.00 49 1002.1
20260503031706 43 182 0.0 1.0 0.00 0.00 0.00 49 1002.3
20260503030206 43 182 0.0 0.0 0.00 0.00 0.00 49 1002.5
20260503024706 43 182 0.0 3.0 0.00 0.00 0.00 48 1002.5
20260503023206 43 182 0.0 1.0 0.00 0.00 0.00 49 1002.6
20260503021706 44 182 0.0 1.0 0.00 0.00 0.00 49 1002.6
20260503020206 44 182 0.0 0.0 0.00 0.00 0.00 50 1003.0
20260503014706 45 182 0.0 3.0 0.00 0.00 0.00 48 1002.8
20260503013206 46 182 0.0 0.0 0.00 0.00 0.00 47 1002.8
20260503011706 46 182 0.0 6.0 0.00 0.00 0.00 47 1002.6
20260503010206 47 182 0.0 1.0 0.00 0.00 0.00 46 1002.7
20260503004706 48 182 1.0 4.0 0.00 0.00 0.00 46 1002.7
20260503003206 48 182 0.0 0.0 0.00 0.00 0.00 45 1003.1
20260503001706 49 182 4.0 5.0 0.00 0.00 0.00 44 1003.2
20260503000206 49 182 0.0 5.0 0.00 0.00 0.00 43 1003.3
20260502234706 50 182 0.0 4.0 0.00 0.00 0.00 43 1003.6
20260502233206 50 182 0.0 4.0 0.00 0.00 0.00 43 1003.8
20260502231706 50 182 0.0 6.0 0.00 0.00 0.00 44 1003.9
20260502230206 51 182 0.0 2.0 0.00 0.00 0.00 42 1004.0
20260502224706 51 173 1.0 8.0 0.00 0.00 0.00 42 1004.2
20260502223206 51 173 0.0 6.0 0.00 0.00 0.00 40 1004.3
20260502221706 52 167 0.0 6.0 0.00 0.00 0.00 38 1004.3
20260502220205 54 165 6.0 6.0 0.00 0.00 0.00 38 1004.2
20260502214704 54 171 0.0 10.0 0.00 0.00 0.00 36 1004.4
20260502213204 55 257 2.0 3.0 0.00 0.00 0.00 36 1004.5
20260502211704 55 277 0.0 7.0 0.00 0.00 0.00 36 1004.7
20260502210204 57 280 0.0 3.0 0.00 0.00 0.00 32 1005.0
20260502204704 57 286 0.0 9.0 0.00 0.00 0.00 30 1005.1
20260502203204 56 279 6.0 9.0 0.00 0.00 0.00 31 1005.3
20260502201704 55 267 0.0 10.0 0.00 0.00 0.00 32 1005.7
20260502200203 55 232 2.0 10.0 0.00 0.00 0.00 31 1005.8
20260502194704 56 252 2.0 9.0 0.00 0.00 0.00 31 1006.0
20260502193203 56 262 2.0 4.0 0.00 0.00 0.00 32 1006.2
20260502191703 56 250 1.0 7.0 0.00 0.00 0.00 32 1006.4
20260502190203 55 249 1.0 3.0 0.00 0.00 0.00 32 1006.8
20260502184703 55 261 3.0 8.0 0.00 0.00 0.00 33 1006.9
20260502183203 54 257 0.0 2.0 0.00 0.00 0.00 34 1007.1
20260502181703 52 247 5.0 8.0 0.00 0.00 0.00 33 1007.5
20260502180203 52 263 0.0 6.0 0.00 0.00 0.00 34 1007.7